Ketchikan, AK

8:06 AM AKDT on April 22, 2018 (GMT -0800)
Ketchikan International

Weather History for PAKT - December, 2017

Change the Weather History Date:

Saturday, December 2, 2017

  Actual Average Record
Temperature  
Mean Temperature 34 °F -  
Max Temperature 35 °F 41 °F 53 °F (1989)
Min Temperature 32 °F 31 °F 6 °F (1970)
Degree Days  
Heating Degree Days 32    
Moisture  
Dew Point 32 °F    
Average Humidity 92    
Maximum Humidity 96    
Minimum Humidity 81    
Precipitation  
Precipitation 0.01 in - - ()
Sea Level Pressure  
Sea Level Pressure 30.04 in    
Wind  
Wind Speed 4 mph (WSW)    
Max Wind Speed 6 mph    
Max Gust Speed -    
Visibility 10 miles    
Events Rain    
Averages and records for this station are not official NWS values.
T = Trace of Precipitation, MM = Missing Value Source: NWS Daily Summary

Daily Weather History Graph

Daily Weather History Graph

Search for Another Location

Airport or City:

Astronomy

Dec. 02, 2017 Rise Set
Actual Time 7:52 AM AKST 3:20 PM AKST
Civil Twilight 7:07 AM AKST 4:04 PM AKST
Nautical Twilight 6:20 AM AKST 4:52 PM AKST
Astronomical Twilight 5:36 AM AKST 5:36 PM AKST
Moon 3:26 PM AKST (12/2) 6:05 AM AKST (12/2)
Length of Visible Light 8h 57m
Length of Day
7h 28m
Waxing Gibbous, 99% of the Moon is Illuminated
Dec 2
Waxing Gibbous
Dec 3
Full
Dec 9
Last Quarter
Dec 17
New
Dec 26
First Quarter

Hourly Weather History & Observations

Time (AKST) Temp. Windchill Dew Point Humidity Pressure Visibility Wind Dir Wind Speed Gust Speed Precip Events Conditions
12:06 AM 33.1 °F 27.7 °F 32.0 °F 96% 29.93 in 10.0 mi WNW 5.8 mph - N/A   Mostly Cloudy
12:41 AM 33.1 °F 28.7 °F 32.0 °F 96% 29.94 in 10.0 mi WNW 4.6 mph - N/A   Scattered Clouds
12:53 AM 33.1 °F 30.0 °F 32.0 °F 96% 29.95 in 10.0 mi NW 3.5 mph - N/A   Scattered Clouds
1:07 AM 33.1 °F 28.7 °F 32.0 °F 96% 29.94 in 10.0 mi NW 4.6 mph - N/A   Mostly Cloudy
1:53 AM 34.0 °F 29.8 °F 33.1 °F 96% 29.97 in 10.0 mi NW 4.6 mph - N/A   Overcast
2:53 AM 34.0 °F 31.0 °F 32.0 °F 92% 29.98 in 10.0 mi WNW 3.5 mph - N/A   Overcast
3:53 AM 34.0 °F 29.8 °F 32.0 °F 92% 29.99 in 10.0 mi NW 4.6 mph - N/A   Overcast
4:53 AM 34.0 °F 31.0 °F 32.0 °F 92% 30.00 in 10.0 mi WNW 3.5 mph - N/A   Overcast
5:53 AM 33.1 °F 30.0 °F 30.9 °F 92% 30.01 in 10.0 mi WNW 3.5 mph - N/A   Overcast
6:00 AM 33.1 °F 30.0 °F 30.9 °F 92% 30.00 in 10.0 mi WNW 3.5 mph - N/A   Overcast
6:53 AM 33.8 °F 30.8 °F 30.2 °F 87% 30.02 in 10.0 mi WNW 3.5 mph - N/A   Scattered Clouds
7:53 AM 32.0 °F - 30.0 °F 92% 30.03 in 10.0 mi Calm Calm - N/A   Scattered Clouds
8:53 AM 32.0 °F - 30.2 °F 93% 30.05 in 10.0 mi Calm Calm - N/A   Scattered Clouds
9:53 AM 34.0 °F 31.0 °F 32.0 °F 92% 30.06 in 10.0 mi West 3.5 mph - N/A   Scattered Clouds
10:53 AM 35.6 °F 32.8 °F 32.0 °F 87% 30.06 in 10.0 mi WNW 3.5 mph - N/A   Mostly Cloudy
11:53 AM 35.6 °F 30.7 °F 32.0 °F 87% 30.06 in 10.0 mi NNW 5.8 mph - N/A   Mostly Cloudy
12:53 PM 35.6 °F 32.8 °F 30.2 °F 81% 30.06 in 10.0 mi WNW 3.5 mph - N/A   Scattered Clouds
1:53 PM 35.1 °F 31.0 °F 30.9 °F 85% 30.07 in 10.0 mi WNW 4.6 mph - N/A   Overcast
2:53 PM 35.1 °F 31.0 °F 32.0 °F 89% 30.08 in 10.0 mi WNW 4.6 mph - N/A   Overcast
3:53 PM 33.1 °F 30.0 °F 30.9 °F 92% 30.07 in 10.0 mi South 3.5 mph - 0.00 in   Scattered Clouds
4:53 PM 34.0 °F 29.8 °F 30.9 °F 89% 30.07 in 10.0 mi South 4.6 mph - N/A   Overcast
5:53 PM 34.0 °F 31.0 °F 32.0 °F 92% 30.08 in 10.0 mi South 3.5 mph - N/A   Overcast
6:53 PM 34.0 °F 28.8 °F 32.0 °F 92% 30.08 in 10.0 mi SSE 5.8 mph - 0.00 in   Overcast
7:53 PM 34.0 °F 29.8 °F 32.0 °F 92% 30.09 in 10.0 mi South 4.6 mph - N/A   Overcast
8:53 PM 34.0 °F 28.8 °F 33.1 °F 96% 30.09 in 10.0 mi South 5.8 mph - N/A   Overcast
9:09 PM 34.0 °F 28.8 °F 33.1 °F 96% 30.08 in 10.0 mi South 5.8 mph - N/A   Overcast
9:53 PM 34.0 °F 28.8 °F 33.1 °F 96% 30.09 in 10.0 mi SSE 5.8 mph - N/A   Overcast
10:53 PM 34.0 °F 29.8 °F 33.1 °F 96% 30.10 in 10.0 mi South 4.6 mph - 0.01 in Rain Light Rain
11:09 PM 34.0 °F 31.0 °F 33.1 °F 96% 30.10 in 10.0 mi South 3.5 mph - 0.00 in   Overcast
11:40 PM 34.0 °F 31.0 °F 33.1 °F 96% 30.10 in 8.0 mi SSE 3.5 mph - 0.00 in   Overcast
11:53 PM 34.0 °F 29.8 °F 33.1 °F 96% 30.11 in 10.0 mi South 4.6 mph - 0.00 in   Overcast